Powrót do katalogu

SL-14 R/B

AktywnyPO
NORAD 18340·ROCKET BODY·🇷🇺 Russia

Wystrzelony Sep 7, 1987 z Plesetsk Cosmodrome

Loading…

Następne Przeloty (najbliższe 24 godziny)

TLE

ŚwieżeSource: Space-Track

Epoka: Sep 14, 2026, 07:04 UTC

1 18340U 87074G   26257.29500998  .00000020  00000-0  59607-4 0  9999
2 18340  82.5734  20.3082 0039731   9.8314  15.8830 12.55580311788199

Śledź SL-14 R/B w czasie rzeczywistym z AllMySat

Download on the App Store